FW4261 Weather Reports


time (UTC)temp
F
wind
direction
speed
knots
gust
knots
rain 1hr
in
rain 24hr
in
rain mn
in
humidity
%
barometer
mb
20260505111216 54 152 0.0 0.9 0.00 0.00 0.00 89 1014.6
20260505110720 54 140 0.0 0.9 0.00 0.00 0.00 89 1014.6
20260505110239 54 182 0.9 0.9 0.00 0.00 0.00 89 1014.6
20260505101818 54 152 0.0 0.9 0.00 0.00 0.00 89 1014.6
20260505101323 54 130 0.0 0.0 0.00 0.00 0.00 89 1014.6
20260505100818 54 143 0.0 0.9 0.00 0.00 0.00 89 1014.5
20260505100338 54 129 0.0 0.9 0.00 0.00 0.00 89 1014.6
20260505095818 54 144 0.9 1.7 0.00 0.00 0.00 89 1014.7
20260505095323 54 137 0.0 0.9 0.00 0.00 0.00 89 1014.8
20260505094818 54 134 0.0 1.7 0.00 0.00 0.00 89 1014.8
20260505094316 54 144 0.9 0.9 0.00 0.00 0.00 89 1014.8
20260505093816 54 141 0.0 0.9 0.00 0.00 0.00 89 1014.7
20260505093319 54 175 0.9 0.9 0.00 0.00 0.00 89 1014.8
20260505092819 54 0.0 0.0 0.00 0.00 0.00 89 1014.8
20260505092319 54 151 0.0 0.9 0.00 0.00 0.00 88 1014.9
20260505091819 54 136 0.9 0.9 0.00 0.00 0.00 88 1015.0
20260505091319 54 133 0.0 0.9 0.00 0.00 0.00 88 1015.0
20260505090820 54 144 0.0 0.9 0.00 0.00 0.00 88 1015.1
20260505090317 54 161 0.9 0.9 0.00 0.00 0.00 88 1015.2
20260505085817 54 166 0.0 0.9 0.00 0.00 0.00 88 1015.2
20260505085342 54 176 0.9 1.7 0.00 0.00 0.00 88 1015.1
20260505084838 54 143 0.9 0.9 0.00 0.00 0.00 89 1015.1
20260505084317 54 134 0.9 0.9 0.00 0.00 0.00 89 1015.1
20260505083817 54 156 0.0 0.9 0.00 0.00 0.00 88 1015.1
20260505083320 54 144 0.0 0.9 0.00 0.00 0.00 89 1015.1
20260505082817 54 0.0 0.0 0.00 0.00 0.00 89 1015.2
20260505082318 54 154 0.0 0.9 0.00 0.00 0.00 89 1015.2
20260505081818 54 173 0.9 1.7 0.00 0.00 0.00 88 1015.2
20260505081323 54 171 0.9 1.7 0.00 0.00 0.00 89 1015.2
20260505080817 54 144 0.0 0.9 0.00 0.00 0.00 89 1015.3
20260505080318 54 158 0.9 1.7 0.00 0.00 0.00 89 1015.4
20260505075838 54 182 0.9 1.7 0.00 0.00 0.00 89 1015.3
20260505075318 54 180 0.9 0.9 0.00 0.00 0.00 89 1015.3
20260505074818 54 182 0.9 0.9 0.00 0.00 0.00 89 1015.3
20260505074318 54 173 0.9 1.7 0.00 0.00 0.00 89 1015.3
20260505073818 54 146 0.0 0.9 0.00 0.00 0.00 88 1015.3
20260505073339 54 164 0.0 0.9 0.00 0.00 0.00 89 1015.2
20260505072818 54 184 0.9 1.7 0.00 0.00 0.00 89 1015.2
20260505072318 54 149 0.9 0.9 0.00 0.00 0.00 89 1015.1
20260505071819 54 0.0 0.0 0.00 0.00 0.00 89 1015.1
20260505070718 54 172 0.0 1.7 0.00 0.00 0.00 89 1015.1
20260505070218 54 181 0.9 1.7 0.00 0.00 0.00 89 1015.2
20260505065718 54 185 0.9 1.7 0.00 0.00 0.00 88 1015.2
20260505065239 0 158 0.9 0.9 0.00 0.00 0.00
20260505064620 54 179 0.0 0.9 0.00 0.00 0.00 88 1015.0
20260505064119 55 163 0.9 0.9 0.00 0.00 0.00 88 1015.0
20260505063619 55 157 0.0 0.9 0.00 0.00 0.00 88 1014.9
20260505063121 55 166 0.9 0.9 0.00 0.00 0.00 88 1014.8
20260505062619 55 165 0.9 1.7 0.00 0.00 0.00 88 1014.8
20260505062119 55 187 0.9 1.7 0.00 0.00 0.00 88 1014.8
20260505061619 55 143 0.9 0.9 0.00 0.00 0.00 88 1014.9
20260505061124 55 150 0.9 0.9 0.00 0.00 0.00 88 1015.0
20260505060620 55 152 0.0 0.9 0.00 0.00 0.00 87 1015.0
20260505060119 55 177 0.9 1.7 0.00 0.00 0.00 87 1015.1
20260505055620 55 190 0.9 1.7 0.00 0.00 0.00 87 1015.1
20260505055120 55 184 0.9 0.9 0.00 0.00 0.00 87 1015.2
20260505054645 55 166 0.9 0.9 0.00 0.00 0.00 87 1015.2
20260505053717 55 186 0.9 1.7 0.00 0.00 0.00 86 1015.2
20260505053217 55 183 0.0 0.9 0.00 0.00 0.00 86 1015.2
20260505052718 55 144 0.0 0.9 0.00 0.00 0.00 86 1015.3
20260505052217 55 151 0.0 0.9 0.00 0.00 0.00 86 1015.3
20260505051718 55 138 0.9 0.9 0.00 0.00 0.00 86 1015.3
20260505051239 55 133 0.9 0.9 0.00 0.00 0.00 85 1015.4
20260505050717 55 145 0.0 0.9 0.00 0.00 0.00 85 1015.4
20260505050218 56 185 0.9 1.7 0.00 0.00 0.00 85 1015.4
20260505041718 56 131 0.9 0.9 0.00 0.00 0.00 83 1015.0
20260505041218 57 135 0.9 0.9 0.00 0.00 0.00 83 1015.0
20260505040718 57 119 0.0 0.9 0.00 0.00 0.00 83 1014.9
20260505040219 57 125 0.0 1.7 0.00 0.00 0.00 83 1014.8
20260505035724 57 143 0.9 1.7 0.00 0.00 0.00 82 1014.7
20260505035219 57 157 0.0 0.9 0.00 0.00 0.00 82 1014.7
20260505034719 57 118 0.0 0.9 0.00 0.00 0.00 83 1014.6
20260505034219 57 156 0.0 0.9 0.00 0.00 0.00 82 1014.5
20260505033718 57 156 0.0 1.7 0.00 0.00 0.00 82 1014.4
20260505033216 57 125 0.0 0.9 0.00 0.00 0.00 82 1014.3
20260505032737 57 134 0.0 0.9 0.00 0.00 0.00 82 1014.4
20260505032219 57 152 0.0 0.9 0.00 0.00 0.00 82 1014.4
20260505031740 57 50 0.0 1.7 0.00 0.00 0.00 82 1014.5
20260505031220 57 71 0.9 1.7 0.00 0.00 0.00 82 1014.6
20260505030717 57 170 0.0 1.7 0.00 0.00 0.00 82 1014.5
20260505030219 57 137 0.0 0.9 0.00 0.00 0.00 82 1014.5
20260505025719 58 158 0.0 1.7 0.00 0.00 0.00 82 1014.5
20260505025217 58 59 0.9 1.7 0.00 0.00 0.00 81 1014.5
20260505024718 58 124 0.0 0.9 0.00 0.00 0.00 80 1014.5
20260505024238 58 131 0.0 0.9 0.00 0.00 0.00 79 1014.5
20260505023717 59 181 0.9 1.7 0.00 0.00 0.00 79 1014.5
20260505023220 59 12 0.0 1.7 0.00 0.00 0.00 78 1014.5
20260505022720 59 93 0.0 0.9 0.00 0.00 0.00 78 1014.4
20260505022222 0 153 0.0 0.9 0.00 0.00 0.00
20260505021718 60 126 0.0 0.0 0.00 0.00 0.00 76 1014.4
20260505021218 60 205 0.0 1.7 0.00 0.00 0.00 76 1014.4
20260505020718 60 165 0.9 3.5 0.00 0.00 0.00 76 1014.4
20260505020218 61 224 0.9 2.6 0.00 0.00 0.00 73 1014.4
20260505015718 61 220 1.7 3.5 0.00 0.00 0.00 73 1014.4
20260505015238 61 159 0.0 1.7 0.00 0.00 0.00 73 1014.4
20260505014721 0 13 0.9 0.9 0.00 0.00 0.00
20260505014121 0 183 1.7 2.6 0.00 0.00 0.00
20260505013950 61 228 0.0 0.9 0.00 0.00 0.00 70 1014.5
20260505013121 61 241 0.0 1.7 0.00 0.00 0.00 69 1014.6
20260505012618 62 177 0.9 2.6 0.00 0.00 0.00 68 1014.6
20260505012118 62 205 0.0 1.7 0.00 0.00 0.00 68 1014.7
20260505011519 62 238 0.9 2.6 0.00 0.00 0.00 68 1014.7
20260505011039 62 165 1.7 4.3 0.00 0.00 0.00 67 1014.8
20260505010539 62 0.0 0.0 0.00 0.00 0.00 68 1014.8
20260505010019 62 146 1.7 3.5 0.00 0.00 0.00 68 1014.8
20260505005519 63 198 0.9 1.7 0.00 0.00 0.00 67 1014.9
20260505005019 63 221 0.9 1.7 0.00 0.00 0.00 67 1014.9
20260505004520 62 243 0.9 1.7 0.00 0.00 0.00 67 1015.0
20260505004021 62 250 0.9 1.7 0.00 0.00 0.00 67 1015.0
20260505003516 62 258 1.7 3.5 0.00 0.00 0.00 67 1015.0
20260505003017 62 221 0.9 2.6 0.00 0.00 0.00 69 1015.0
20260505002520 62 288 1.7 4.3 0.00 0.00 0.00 70 1015.1
20260505002019 62 254 0.9 2.6 0.00 0.00 0.00 70 1015.1
20260505001541 62 235 0.9 2.6 0.00 0.00 0.00 68 1015.0
20260505001019 62 209 0.9 1.7 0.00 0.00 0.00 69 1014.9
20260505000520 62 170 1.7 5.2 0.00 0.00 0.00 68 1014.8
20260505000017 62 217 1.7 4.3 0.00 0.00 0.00 69 1014.8
20260504235518 62 174 1.7 3.5 0.00 0.00 0.00 69 1014.9
20260504235017 62 247 1.7 3.5 0.00 0.00 0.00 69 1014.9
20260504234537 62 213 1.7 5.2 0.00 0.00 0.00 70 1015.0
20260504234039 62 287 1.7 3.5 0.00 0.00 0.00 69 1015.0
20260504233520 62 215 1.7 3.5 0.00 0.00 0.00 68 1015.0
20260504233041 62 181 2.6 4.3 0.00 0.00 0.00 69 1015.0
20260504232525 62 274 2.6 4.3 0.00 0.00 0.00 69 1015.0
20260504232018 62 178 1.7 3.5 0.00 0.00 0.00 70 1015.1
20260504231518 62 332 1.7 3.5 0.00 0.00 0.00 69 1015.1
20260504231018 63 328 1.7 3.5 0.00 0.00 0.00 67 1015.1
20260504230518 63 201 2.6 5.2 0.00 0.00 0.00 69 1015.1
20260504230020 63 206 3.5 6.1 0.00 0.00 0.00 70 1015.1
20260504225538 63 242 1.7 4.3 0.00 0.00 0.00 69 1015.2
20260504225019 63 233 0.9 2.6 0.00 0.00 0.00 71 1015.2
20260504224519 63 261 1.7 4.3 0.00 0.00 0.00 71 1015.2
20260504224018 62 328 1.7 3.5 0.00 0.00 0.00 72 1015.3
20260504223519 62 218 1.7 4.3 0.00 0.00 0.00 74 1015.4
20260504223100 62 213 2.6 6.1 0.00 0.00 0.00 73 1015.3
20260504222519 63 142 1.7 5.2 0.00 0.00 0.00 71 1015.2
20260504222039 62 312 0.9 3.5 0.00 0.00 0.00 72 1015.3
20260504221519 63 217 1.7 4.3 0.00 0.00 0.00 71 1015.3
20260504221024 63 277 1.7 3.5 0.00 0.00 0.00 69 1015.5
20260504220519 63 213 2.6 3.5 0.00 0.00 0.00 68 1015.5
20260504220019 63 23 1.7 3.5 0.00 0.00 0.00 69 1015.5
20260504215516 63 233 1.7 4.3 0.00 0.00 0.00 67 1015.6
20260504215016 62 232 0.9 2.6 0.00 0.00 0.00 72 1015.6
20260504214516 62 243 1.7 2.6 0.00 0.00 0.00 73 1015.7
20260504214017 62 288 1.7 5.2 0.00 0.00 0.00 74 1015.8
20260504213516 62 264 1.7 4.3 0.00 0.00 0.00 76 1015.7
20260504213024 62 179 0.0 0.9 0.00 0.00 0.00 75 1015.7
20260504212520 63 197 1.7 5.2 0.00 0.00 0.00 74 1015.7
20260504212020 63 219 2.6 5.2 0.00 0.00 0.00 71 1015.8
20260504211517 62 208 2.6 7.0 0.00 0.00 0.00 75 1015.9
20260504211018 62 3 1.7 5.2 0.00 0.00 0.00 74 1015.9
20260504210517 62 246 0.9 2.6 0.00 0.00 0.00 74 1015.9
20260504210018 61 268 1.7 3.5 0.00 0.00 0.00 74 1016.0
20260504205517 62 192 0.9 2.6 0.00 0.00 0.00 74 1015.9
20260504205042 62 155 1.7 3.5 0.00 0.00 0.00 73 1015.9
20260504204518 62 26 1.7 3.5 0.00 0.00 0.00 74 1015.7
20260504204018 62 5 1.7 3.5 0.00 0.00 0.00 73 1015.8
20260504203518 61 258 1.7 2.6 0.00 0.00 0.00 75 1015.9
20260504203021 61 4 1.7 2.6 0.00 0.00 0.00 77 1015.9
20260504202526 61 175 2.6 5.2 0.00 0.00 0.00 74 1016.0
20260504202018 61 215 1.7 2.6 0.00 0.00 0.00 74 1016.0
20260504201518 61 198 1.7 3.5 0.00 0.00 0.00 75 1016.0
20260504201018 61 161 2.6 4.3 0.00 0.00 0.00 76 1016.1
20260504200518 61 192 1.7 4.3 0.00 0.00 0.00 73 1016.1
20260504200019 61 327 1.7 2.6 0.00 0.00 0.00 75 1016.1
20260504195601 62 205 1.7 2.6 0.00 0.00 0.00 74 1016.1
20260504195018 62 239 0.9 1.7 0.00 0.00 0.00 75 1016.1
20260504194539 61 251 0.9 1.7 0.00 0.00 0.00 76 1016.1
20260504194018 61 189 1.7 4.3 0.00 0.00 0.00 76 1016.1
20260504193539 61 193 1.7 3.5 0.00 0.00 0.00 76 1016.1
20260504193024 62 215 1.7 4.3 0.00 0.00 0.00 72 1016.2
20260504192539 61 276 1.7 2.6 0.00 0.00 0.00 76 1016.2
20260504192019 60 82 1.7 3.5 0.00 0.00 0.00 76 1016.1
20260504191519 60 169 0.9 2.6 0.00 0.00 0.00 76 1016.2
20260504191044 59 248 1.7 3.5 0.00 0.00 0.00 78 1016.3
20260504190540 59 200 1.7 3.5 0.00 0.00 0.00 78 1016.1
20260504190020 59 248 1.7 3.5 0.00 0.00 0.00 80 1016.1
20260504185516 59 153 0.9 2.6 0.00 0.00 0.00 77 1016.2
20260504185016 59 208 1.7 3.5 0.00 0.00 0.00 78 1016.2
20260504184517 59 239 1.7 3.5 0.00 0.00 0.00 78 1016.2
20260504184017 60 254 1.7 4.3 0.00 0.00 0.00 76 1016.1
20260504183517 61 247 1.7 2.6 0.00 0.00 0.00 74 1016.1
20260504183020 60 213 0.9 2.6 0.00 0.00 0.00 76 1016.1
20260504182519 60 282 1.7 4.3 0.00 0.00 0.00 74 1016.1
20260504182021 60 178 0.9 3.5 0.00 0.00 0.00 77 1016.1
20260504181518 60 257 2.6 5.2 0.00 0.00 0.00 74 1016.1
20260504181017 59 255 0.9 4.3 0.00 0.00 0.00 78 1016.0
20260504180518 59 234 1.7 2.6 0.00 0.00 0.00 77 1016.0
20260504180017 59 190 1.7 3.5 0.00 0.00 0.00 79 1016.0
20260504175517 60 255 1.7 2.6 0.00 0.00 0.00 77 1015.9
20260504175022 59 194 1.7 2.6 0.00 0.00 0.00 78 1015.8
20260504174517 59 29 1.7 3.5 0.00 0.00 0.00 76 1015.7
20260504174021 59 192 1.7 2.6 0.00 0.00 0.00 76 1015.6
20260504173538 59 248 2.6 5.2 0.00 0.00 0.00 75 1015.5
20260504173018 59 240 1.7 3.5 0.00 0.00 0.00 76 1015.6
20260504172523 59 149 0.9 2.6 0.00 0.00 0.00 76 1015.6